Theta_e
303 303 303 304 304 304 301 300 299 295 295 298 300 300 302 303 305 307 305 313 318 318 318 319 317 315 314 314 312 313 314 313 312 311 310 309 309 310
304 303 303 304 303 304 304 303 300 302 297 298 299 300 301 304 305 305 306 310 316 318 317 317 317 316 315 313 311 312 313 310 310 309 307 307 308 308
304 304 303 304 303 303 303 304 303 302 301 303 299 300 299 300 302 304 304 304 304 317 317 317 316 316 315 313 310 311 310 309 308 308 305 305 306 307
305 303 304 305 303 304 303 303 303 303 303 302 300 299 299 299 301 300 304 304 303 309 316 317 316 315 315 313 311 310 309 307 307 306 305 304 305 305
306 305 305 304 304 304 303 304 304 304 303 303 304 299 300 297 297 298 299 301 302 307 313 315 316 315 314 313 311 310 310 308 306 305 303 304 303 303
307 306 306 305 304 304 304 304 304 303 302 302 303 302 297 297 297 297 297 297 301 302 307 309 312 314 314 313 311 310 309 308 306 304 303 302 303 302
307 307 306 308 311 309 306 304 304 303 303 302 301 301 297 294 296 297 300 298 297 299 300 300 302 302 303 310 309 308 306 307 306 304 303 302 301 300
306 306 306 310 310 313 313 313 308 304 303 302 302 301 302 301 302 299 299 294 296 298 299 300 298 298 298 297 303 304 304 307 304 303 302 301 300 299
307 307 306 306 308 307 312 314 313 313 311 305 303 303 303 304 303 297 298 299 301 294 299 299 292 297 295 296 301 302 305 305 304 303 301 300 299 299
309 308 306 307 306 305 305 305 308 310 311 310 307 306 306 306 305 303 302 299 293 291 293 292 287 290 289 291 300 302 305 304 303 302 301 299 298 297
309 309 308 307 309 311 305 304 305 306 311 313 313 312 312 311 307 298 295 295 291 287 290 290 285 286 286 287 289 302 303 303 301 301 300 298 297 297
304 306 309 309 310 311 307 305 303 304 305 305 309 311 312 311 311 304 302 298 295 287 289 292 284 285 285 284 286 289 294 300 302 299 298 297 296 288
304 305 305 309 311 311 310 307 305 307 307 305 305 306 307 308 308 306 304 300 300 295 292 295 286 284 284 281 283 284 286 288 289 291 295 295 295 292
304 306 306 308 309 310 310 311 311 310 307 305 303 303 303 304 306 305 304 304 304 303 294 296 286 287 284 280 281 282 282 283 283 282 283 290 294 294
303 304 307 308 309 309 310 310 310 307 306 304 303 302 303 305 305 303 303 301 296 292 294 296 288 287 287 282 280 280 282 283 282 282 282 283 283 283
302 301 303 304 306 307 307 307 306 306 305 304 304 305 304 300 301 302 298 293 296 287 289 293 289 288 282 282 282 281 282 281 283 282 282 282 282 282
303 300 298 297 298 299 301 302 303 303 304 305 304 303 300 298 299 300 298 295 294 294 285 285 284 285 284 283 282 282 282 281 282 282 282 282 281 282
299 297 297 298 297 298 298 299 298 301 301 303 303 303 301 297 297 298 298 295 293 294 289 287 284 282 283 284 287 283 283 283 282 282 283 281 282 281
297 297 296 297 297 298 298 299 299 299 301 300 301 302 301 297 298 296 295 295 293 294 293 287 285 287 285 284 283 289 282 282 282 281 282 282 282 282
295 295 296 297 297 297 297 297 298 299 298 299 300 301 300 298 298 297 295 294 293 293 291 288 287 289 289 288 283 283 289 283 283 283 281 281 283 287
294 295 296 297 297 297 297 297 297 298 298 298 298 299 300 298 298 297 296 295 294 292 289 287 288 294 286 284 281 280 285 288 286 283 282 280 279 280
287 292 297 297 297 297 297 296 296 296 296 297 298 299 300 299 298 297 295 293 293 292 290 289 288 289 286 286 284 279 282 283 287 288 287 286 281 278
285 286 288 292 298 297 297 297 296 296 297 298 298 299 299 298 298 298 296 294 293 291 289 285 286 286 286 285 283 282 281 281 282 283 284 289 289 288
Wind_Speed
10 9 9 7 6 6 5 4 5 3 4 4 4 5 5 6 10 8 8 13 16 15 14 15 14 14 13 12 11 12 11 10 9 8 6 8 8 9
8 10 10 8 7 7 7 7 5 7 5 5 4 3 5 5 7 8 8 14 15 16 14 15 15 16 15 14 12 13 12 11 10 8 8 8 9 9
10 11 13 11 8 7 7 7 8 7 11 6 4 4 5 6 6 6 7 7 7 17 16 16 16 16 16 15 13 14 14 12 12 10 8 8 9 10
13 12 14 8 11 9 8 11 10 9 9 16 5 5 7 6 6 6 8 8 8 15 18 18 16 17 17 15 14 15 15 14 13 12 10 9 9 10
14 13 14 12 12 10 10 10 9 9 10 10 11 4 5 2 3 4 5 8 6 14 19 18 18 18 18 17 17 17 15 14 15 14 11 10 10 10
14 14 14 14 15 13 12 13 11 9 9 10 11 8 4 4 2 4 6 5 9 6 12 13 15 18 19 19 19 18 15 15 17 15 12 12 11 10
13 13 14 17 21 19 11 12 12 11 10 10 11 8 6 4 7 4 9 4 6 6 7 7 7 6 8 16 14 18 15 16 18 16 13 12 11 11
13 12 13 18 19 25 26 25 18 15 15 12 12 13 15 12 9 9 7 5 7 8 9 11 8 10 8 7 14 16 15 19 18 16 14 13 11 11
13 12 11 10 16 14 22 28 28 28 27 15 17 16 14 14 14 9 12 10 12 2 7 10 5 11 7 8 19 18 18 19 17 17 15 14 12 12
14 14 14 14 12 13 14 16 17 19 20 17 19 17 15 13 13 14 13 8 0 2 4 6 4 6 4 6 18 19 20 19 16 17 17 14 12 12
11 12 13 14 17 20 16 16 16 16 16 27 28 28 25 21 13 6 6 7 6 5 8 4 4 3 3 3 5 19 19 18 18 19 17 14 12 12
8 9 15 17 20 22 17 16 17 15 12 12 13 21 24 19 23 17 11 13 8 1 6 8 4 5 3 3 4 6 8 19 18 19 17 14 13 4
7 7 7 14 20 24 24 17 18 14 15 13 12 11 11 13 13 14 16 13 12 11 8 10 6 5 2 3 2 3 4 4 5 8 15 15 15 10
10 8 8 14 17 19 19 24 26 21 12 10 9 10 11 11 11 12 16 16 15 18 11 15 6 8 6 4 4 3 3 3 4 4 4 9 13 14
9 13 19 19 20 17 20 23 22 12 12 12 12 11 10 10 11 10 12 10 5 2 9 17 6 8 6 5 6 5 6 7 6 5 5 5 5 4
15 11 15 18 19 16 14 12 9 10 11 12 12 11 8 6 9 9 8 7 9 2 2 9 9 11 5 4 5 6 5 7 9 7 5 4 4 4
20 13 9 6 8 8 7 8 7 8 10 11 11 10 7 8 9 9 10 7 11 9 6 3 4 3 1 8 4 5 8 4 5 7 5 5 4 5
15 12 10 9 9 8 8 7 6 10 9 9 10 10 9 9 10 8 10 10 11 11 9 8 6 3 3 3 5 8 5 7 5 7 4 5 4 5
11 10 9 8 9 8 7 7 8 7 9 8 9 10 9 8 10 10 10 10 10 10 9 10 10 9 12 14 2 16 7 7 7 6 6 6 4 4
9 10 10 9 9 8 7 7 8 7 7 8 9 9 9 8 9 9 11 12 11 10 9 9 11 14 16 14 7 4 19 9 8 9 7 3 2 6
11 11 10 9 8 8 8 7 8 7 8 8 8 9 9 9 11 11 11 18 16 11 12 12 14 23 4 7 4 3 7 13 11 11 7 6 4 3
13 15 13 10 9 8 8 8 7 7 8 8 9 9 9 9 11 11 11 10 12 11 11 9 9 9 9 11 9 6 6 6 12 16 16 12 7 7
13 13 13 15 12 9 9 9 8 8 8 9 10 10 9 10 10 10 11 12 11 11 9 8 9 9 11 11 10 7 10 11 8 7 7 16 13 10
Wind_Direction
220 215 216 221 203 208 191 179 165 232 277 271 236 210 202 191 206 199 199 213 214 215 218 219 222 228 229 235 247 247 244 247 259 267 276 295 302 310
222 214 217 219 209 208 208 210 199 213 237 211 241 236 203 210 212 205 207 210 218 219 218 215 220 228 230 232 243 241 239 246 251 248 265 281 293 303
220 217 227 216 217 208 204 209 218 206 241 256 234 225 209 205 214 210 207 206 217 223 222 216 221 224 228 229 233 234 235 243 245 235 255 271 286 294
226 221 231 215 220 212 202 213 217 207 222 251 225 223 219 217 214 207 214 219 213 225 226 221 222 221 222 222 224 228 232 239 237 233 245 259 276 289
228 223 229 215 221 218 212 217 216 216 214 238 253 209 209 187 211 230 206 223 220 222 226 225 225 220 220 219 220 220 227 227 225 227 239 249 267 286
232 226 227 219 220 221 216 217 220 210 208 221 240 239 197 214 196 205 238 217 230 214 226 220 222 224 221 220 220 218 219 221 220 222 234 241 256 275
236 230 228 229 222 220 215 218 215 214 219 221 233 229 200 191 201 197 229 221 234 205 219 224 213 211 219 228 225 213 216 217 216 220 229 233 247 264
243 238 233 234 231 230 228 227 209 213 220 216 226 226 227 221 214 206 207 181 251 200 209 235 186 219 218 209 211 213 226 210 211 217 225 227 240 257
244 245 240 233 230 228 236 235 236 228 227 218 229 225 228 214 210 199 208 211 228 219 195 236 173 225 206 213 214 218 217 205 207 213 220 224 233 254
247 242 239 241 227 220 229 233 233 233 233 230 236 236 235 232 213 211 215 219 341 196 169 209 165 222 179 204 212 217 211 207 208 211 215 216 233 247
254 248 243 243 238 228 228 237 240 239 237 233 234 237 233 228 201 149 178 185 231 224 195 185 183 182 189 215 208 213 207 209 216 208 206 217 228 237
270 259 250 244 243 236 234 238 246 245 233 235 236 240 237 236 215 201 200 214 215 211 198 193 148 145 228 213 188 197 208 218 199 198 208 218 221 186
290 282 264 253 248 246 239 240 242 244 241 232 234 234 229 225 224 210 214 206 220 232 192 178 169 166 162 140 219 189 159 172 171 202 212 212 215 200
294 288 282 274 270 258 248 248 248 246 245 242 235 229 224 220 218 211 215 223 226 230 167 185 171 172 161 145 179 164 195 186 164 184 188 211 213 220
291 286 287 286 285 283 268 259 249 245 244 244 242 235 228 220 217 215 223 232 235 234 180 190 170 171 175 167 162 171 141 204 188 174 181 185 185 185
299 291 294 290 277 271 276 264 247 240 238 240 243 242 222 198 204 197 197 193 216 219 262 201 188 168 161 170 147 156 179 175 178 187 171 180 195 199
299 297 293 279 281 272 262 255 247 241 238 242 244 243 219 202 204 191 200 190 214 209 190 166 150 145 327 153 156 166 168 157 167 159 160 184 204 201
290 289 285 279 274 271 265 262 242 246 244 245 243 239 229 205 206 197 200 203 207 212 192 178 159 107 48 286 218 164 157 173 163 164 155 173 206 198
281 281 277 273 274 270 261 256 258 245 246 246 244 242 235 210 203 204 204 206 211 211 196 172 177 186 196 218 179 190 154 172 158 171 177 184 178 175
278 282 276 272 271 268 261 255 260 258 249 248 248 243 232 212 213 212 206 211 211 206 194 181 189 199 208 209 188 205 193 157 173 181 174 143 214 244
286 277 271 268 265 266 262 260 256 260 254 252 250 245 238 216 225 217 209 208 206 203 201 198 204 205 129 98 114 161 184 183 174 166 152 152 162 184
332 329 303 281 273 263 266 260 260 258 256 255 255 252 245 230 229 219 209 203 206 205 207 199 180 176 182 195 195 150 155 169 185 172 169 162 163 192
332 326 323 324 308 281 270 265 258 259 259 261 260 259 244 235 230 228 213 206 204 201 189 171 174 179 194 197 176 164 161 167 165 175 196 204 211 215